| time (UTC) | temp C | wind direction | speed KPH | gust KPH | rain 1hr cm | rain 24hr cm | rain mn cm | humidity % | barometer mb |
| 20260507223059 | 14 | 208 | 0.0 | 8.0 | 0.00 | 1.73 | 0.89 | 70 | 1004.1 |
| 20260507221555 | 15 | 219 | 3.2 | 9.7 | 0.00 | 1.73 | 0.89 | 70 | 1004.3 |
| 20260507220057 | 15 | 193 | 3.2 | 8.0 | 0.00 | 1.73 | 0.89 | 70 | 1004.3 |
| 20260507214559 | 15 | 191 | 1.6 | 8.0 | 0.00 | 1.73 | 0.89 | 71 | 1004.1 |
| 20260507213054 | 14 | 234 | 1.6 | 14.5 | 0.00 | 1.73 | 0.89 | 72 | 1004.2 |
| 20260507211615 | 14 | 217 | 4.8 | 9.7 | 0.00 | 1.73 | 0.89 | 71 | 1003.9 |
| 20260507210054 | 14 | 257 | 1.6 | 8.0 | 0.00 | 1.73 | 0.89 | 71 | 1003.9 |
| 20260507204600 | 14 | 219 | 8.0 | 14.5 | 0.00 | 1.73 | 0.89 | 70 | 1003.7 |
| 20260507203051 | 15 | 171 | 8.0 | 14.5 | 0.00 | 1.73 | 0.89 | 67 | 1003.6 |
| 20260507201606 | 16 | 200 | 6.4 | 14.5 | 0.00 | 1.73 | 0.89 | 69 | 1003.5 |
| 20260507200100 | 16 | 115 | 1.6 | 12.9 | 0.00 | 1.73 | 0.89 | 69 | 1003.7 |
| 20260507194553 | 15 | 119 | 3.2 | 17.7 | 0.00 | 1.73 | 0.89 | 69 | 1004.1 |
| 20260507193046 | 16 | 180 | 3.2 | 11.3 | 0.00 | 1.73 | 0.89 | 68 | 1004.3 |
| 20260507191550 | 15 | 134 | 4.8 | 12.9 | 0.00 | 1.73 | 0.89 | 67 | 1004.5 |
| 20260507190045 | 15 | 125 | 3.2 | 16.1 | 0.00 | 1.73 | 0.89 | 69 | 1004.8 |
| 20260507184544 | 16 | 360 | 4.8 | 9.7 | 0.00 | 1.73 | 0.89 | 52 | 1004.8 |
| 20260507183043 | 16 | 67 | 6.4 | 12.9 | 0.00 | 1.73 | 0.89 | 52 | 1004.9 |
| 20260507181540 | 16 | 13 | 3.2 | 14.5 | 0.00 | 1.73 | 0.89 | 55 | 1005.0 |
| 20260507180045 | 15 | 15 | 4.8 | 12.9 | 0.00 | 1.73 | 0.89 | 59 | 1005.4 |
| 20260507174540 | 15 | 319 | 3.2 | 11.3 | 0.00 | 1.73 | 0.89 | 59 | 1005.6 |
| 20260507173036 | 13 | 347 | 4.8 | 16.1 | 0.00 | 1.73 | 0.89 | 65 | 1005.6 |
| 20260507171534 | 13 | 279 | 8.0 | 16.1 | 0.00 | 1.73 | 0.89 | 68 | 1005.7 |
| 20260507170034 | 13 | 324 | 8.0 | 19.3 | 0.00 | 1.73 | 0.89 | 68 | 1006.0 |
| 20260507164534 | 13 | 300 | 9.7 | 17.7 | 0.00 | 1.73 | 0.89 | 70 | 1005.9 |
| 20260507163031 | 12 | 23 | 6.4 | 17.7 | 0.00 | 1.73 | 0.89 | 71 | 1005.9 |
| 20260507161530 | 12 | 299 | 8.0 | 20.9 | 0.00 | 1.73 | 0.89 | 74 | 1006.1 |
| 20260507160034 | 12 | 297 | 8.0 | 20.9 | 0.00 | 1.73 | 0.89 | 72 | 1006.2 |
| 20260507154530 | 12 | 281 | 8.0 | 22.5 | 0.00 | 1.73 | 0.89 | 75 | 1006.4 |
| 20260507153032 | 11 | 340 | 11.3 | 17.7 | 0.00 | 1.73 | 0.89 | 77 | 1006.5 |
| 20260507151525 | 11 | 338 | 6.4 | 19.3 | 0.00 | 1.73 | 0.89 | 80 | 1006.2 |
| 20260507150023 | 10 | 301 | 6.4 | 19.3 | 0.00 | 1.73 | 0.89 | 82 | 1006.4 |
| 20260507144521 | 10 | 348 | 6.4 | 19.3 | 0.00 | 1.73 | 0.89 | 85 | 1006.4 |
| 20260507143023 | 10 | 343 | 4.8 | 8.0 | 0.00 | 1.73 | 0.89 | 87 | 1006.5 |
| 20260507141517 | 9 | 355 | 4.8 | 22.5 | 0.00 | 1.73 | 0.89 | 86 | 1006.4 |
| 20260507140024 | 9 | 313 | 8.0 | 20.9 | 0.00 | 1.73 | 0.89 | 86 | 1006.2 |
| 20260507134514 | 9 | 325 | 11.3 | 20.9 | 0.03 | 1.73 | 0.89 | 86 | 1006.2 |
| 20260507133014 | 8 | 323 | 12.9 | 19.3 | 0.03 | 1.73 | 0.89 | 87 | 1006.0 |
| 20260507131511 | 8 | 319 | 6.4 | 17.7 | 0.03 | 1.73 | 0.89 | 88 | 1006.7 |
| 20260507130010 | 8 | 290 | 6.4 | 17.7 | 0.05 | 1.73 | 0.89 | 88 | 1006.6 |
| 20260507124607 | 8 | 322 | 4.8 | 17.7 | 0.05 | 1.70 | 0.86 | 88 | 1006.5 |
| 20260507123006 | 8 | 15 | 9.7 | 19.3 | 0.05 | 1.70 | 0.86 | 88 | 1006.4 |
| 20260507121505 | 8 | 327 | 8.0 | 24.1 | 0.05 | 1.70 | 0.86 | 88 | 1006.3 |
| 20260507120003 | 9 | 355 | 12.9 | 30.6 | 0.05 | 1.68 | 0.84 | 89 | 1006.6 |
| 20260507114603 | 9 | 355 | 12.9 | 24.1 | 0.03 | 1.65 | 0.81 | 89 | 1006.7 |
| 20260507113059 | 9 | 5 | 12.9 | 22.5 | 0.05 | 1.65 | 0.81 | 89 | 1005.8 |
| 20260507111557 | 9 | 355 | 16.1 | 35.4 | 0.08 | 1.65 | 0.81 | 90 | 1005.9 |
| 20260507110057 | 9 | 332 | 14.5 | 33.8 | 0.10 | 1.63 | 0.79 | 90 | 1006.0 |
| 20260507104554 | 9 | 306 | 16.1 | 30.6 | 0.53 | 1.63 | 0.79 | 91 | 1005.8 |
| 20260507103049 | 9 | 322 | 14.5 | 27.4 | 0.56 | 1.60 | 0.76 | 91 | 1005.6 |
| 20260507101601 | 10 | 335 | 16.1 | 27.4 | 0.56 | 1.57 | 0.71 | 91 | 1005.4 |
| 20260507100045 | 10 | 294 | 19.3 | 27.4 | 0.66 | 1.52 | 0.69 | 91 | 1004.9 |
| 20260507094553 | 10 | 336 | 14.5 | 27.4 | 0.23 | 1.09 | 0.25 | 91 | 1005.4 |
| 20260507093037 | 11 | 5 | 16.1 | 27.4 | 0.15 | 1.02 | 0.18 | 91 | 1004.8 |
| 20260507091551 | 12 | 301 | 6.4 | 25.7 | 0.18 | 1.02 | 0.18 | 92 | 1005.0 |
| 20260507090033 | 12 | 300 | 6.4 | 12.9 | 0.03 | 0.86 | 0.03 | 92 | 1005.5 |
| 20260507084530 | 12 | 245 | 3.2 | 11.3 | 0.03 | 0.86 | 0.03 | 91 | 1004.9 |
| 20260507083030 | 12 | 228 | 3.2 | 9.7 | 0.03 | 0.86 | 0.03 | 91 | 1004.1 |
| 20260507081540 | 12 | 189 | 1.6 | 8.0 | 0.00 | 0.84 | 0.00 | 91 | 1004.0 |
| 20260507080025 | 12 | 211 | 1.6 | 4.8 | 0.00 | 0.84 | 0.00 | 91 | 1004.2 |
| 20260507074527 | 12 | 196 | 3.2 | 6.4 | 0.00 | 0.84 | 0.00 | 91 | 1004.3 |
| 20260507073022 | 12 | 220 | 3.2 | 9.7 | 0.00 | 0.84 | 0.00 | 91 | 1004.5 |
| 20260507071521 | 12 | 234 | 4.8 | 9.7 | 0.00 | 0.84 | 0.00 | 91 | 1005.0 |
| 20260507070020 | 12 | 263 | 1.6 | 8.0 | 0.00 | 0.84 | 0.00 | 91 | 1004.5 |
| 20260507064520 | 12 | 263 | 1.6 | 12.9 | 0.00 | 0.84 | 0.00 | 91 | 1004.5 |
| 20260507063018 | 12 | 211 | 4.8 | 14.5 | 0.00 | 0.84 | 0.00 | 91 | 1004.7 |
| 20260507061529 | 12 | 292 | 4.8 | 19.3 | 0.00 | 0.84 | 0.00 | 91 | 1004.6 |
| 20260507060026 | 13 | 234 | 8.0 | 19.3 | 0.00 | 0.84 | 0.00 | 91 | 1004.7 |
| 20260507054513 | 13 | 255 | 4.8 | 17.7 | 0.00 | 0.84 | 0.00 | 91 | 1004.9 |
| 20260507053111 | 13 | 213 | 6.4 | 19.3 | 0.00 | 0.84 | 0.00 | 91 | 1005.3 |
| 20260507051510 | 13 | 219 | 8.0 | 24.1 | 0.00 | 0.84 | 0.00 | 91 | 1005.4 |
| 20260507050016 | 13 | 215 | 8.0 | 17.7 | 0.00 | 0.84 | 0.00 | 91 | 1005.4 |
| 20260507044511 | 13 | 197 | 6.4 | 17.7 | 0.00 | 0.84 | 0.00 | 91 | 1005.5 |
| 20260507043004 | 13 | 243 | 8.0 | 22.5 | 0.00 | 0.84 | 0.00 | 91 | 1005.8 |
| 20260507041502 | 13 | 318 | 9.7 | 19.3 | 0.00 | 0.84 | 0.00 | 91 | 1006.0 |
| 20260507040100 | 13 | 243 | 11.3 | 30.6 | 0.00 | 0.84 | 0.00 | 91 | 1005.7 |
| 20260507034604 | 13 | 267 | 11.3 | 33.8 | 0.00 | 0.84 | 0.84 | 91 | 1006.0 |
| 20260507033102 | 13 | 222 | 14.5 | 27.4 | 0.00 | 0.84 | 0.84 | 91 | 1005.6 |
| 20260507031558 | 13 | 221 | 8.0 | 27.4 | 0.00 | 0.84 | 0.84 | 91 | 1005.6 |
| 20260507030106 | 13 | 213 | 11.3 | 24.1 | 0.00 | 0.84 | 0.84 | 91 | 1005.8 |
| 20260507024558 | 13 | 231 | 9.7 | 33.8 | 0.00 | 0.84 | 0.84 | 91 | 1006.3 |
| 20260507023052 | 13 | 229 | 12.9 | 29.0 | 0.00 | 0.84 | 0.84 | 91 | 1006.4 |
| 20260507021607 | 13 | 178 | 11.3 | 32.2 | 0.00 | 0.84 | 0.84 | 91 | 1006.7 |
| 20260507020053 | 13 | 186 | 11.3 | 33.8 | 0.03 | 0.84 | 0.84 | 90 | 1006.7 |
| 20260507014607 | 13 | 190 | 11.3 | 27.4 | 0.13 | 0.84 | 0.84 | 90 | 1007.1 |
| 20260507013049 | 13 | 227 | 11.3 | 27.4 | 0.28 | 0.84 | 0.84 | 90 | 1007.0 |
| 20260507011544 | 13 | 211 | 11.3 | 33.8 | 0.41 | 0.84 | 0.84 | 90 | 1007.1 |
| 20260507010050 | 13 | 229 | 11.3 | 24.1 | 0.43 | 0.81 | 0.81 | 90 | 1007.2 |
| 20260507004543 | 13 | 230 | 9.7 | 30.6 | 0.33 | 0.69 | 0.69 | 90 | 1007.2 |
| 20260507003041 | 13 | 198 | 11.3 | 40.2 | 0.30 | 0.56 | 0.56 | 89 | 1007.1 |
| 20260507001541 | 13 | 184 | 16.1 | 35.4 | 0.33 | 0.43 | 0.43 | 89 | 1007.1 |
| 20260507000043 | 13 | 197 | 12.9 | 35.4 | 0.38 | 0.38 | 0.38 | 89 | 1007.1 |
| 20260506234536 | 13 | 205 | 12.9 | 33.8 | 0.36 | 0.36 | 0.36 | 88 | 1007.3 |
| 20260506233036 | 13 | 180 | 12.9 | 35.4 | 0.25 | 0.25 | 0.25 | 87 | 1007.5 |
| 20260506231535 | 14 | 189 | 16.1 | 35.4 | 0.10 | 0.10 | 0.10 | 85 | 1007.6 |
| 20260506230036 | 15 | 226 | 16.1 | 37.0 | 0.00 | 0.00 | 0.00 | 81 | 1007.5 |
| 20260506224536 | 15 | 196 | 14.5 | 35.4 | 0.00 | 0.00 | 0.00 | 80 | 1007.6 |